Retour au catalogue

INTELSAT 4-F5

ActifCommunicationsGEO
NORAD 6052·PAYLOAD· XX

Lancé Jun 13, 1972 depuis Cape Canaveral Space Force Station

Loading…

TLE

FraisSource: Space-Track

Époque: Sep 14, 2026, 10:32 UTC

1 06052U 72041A   26257.43932530 -.00000344  00000-0  00000-0 0  9990
2 06052   5.5162 285.9659 0004496 295.8610  63.9085  1.00125381 47555

Suivez INTELSAT 4-F5 en temps réel avec AllMySat

Download on the App Store